星链-5335 (STARLINK-5335 )

导读

STARLINK-5335是美国太空探索技术公司(SpaceX)星链(Starlink)互联网星座中的一颗卫星,于2023年5月14日发射入轨。星链计划旨在搭建全球卫星宽带互联网,为全球偏远地区、海洋等地面网络难以覆盖区域提供高速网络接入服务,该卫星也是星链低轨星座组网扩容的一部分。

基本信息
目录编号:
56508
目录名称:
STARLINK-5335
国际标识:
2023-065F
轨道中心:
EARTH
卫星名称:
星链-5335
卫星全名:
星链-5335 (STARLINK-5335 )
卫星状态:
在轨 (已飞行1209 天)
发射日期:
2023-05-14 UTC
国别 :
美国 (US)
星等 :
--
轨道信息
数据来源 国际轨道数据
星历时间: 2026-09-04T11:00:17+0800
13小时前
查看轨道信息
半长轴: 6861.193km
偏心率: 0.0001138
轨道倾角: 43.001°
近地点辐角 267.765°
升交点赤经 284.391°
平近点角 92.307°
近地点: 482.275km
远地点: 483.837km
周期: 94.267分钟
每日圈数: 15.275779
详细信息
固有亮度:
5
最大亮度:
2.5
卫星平台:
Starlink v1.5
覆盖范围:
全球
运营商:
太空探索技术公司
运营商所在国:
美国
制造商(研发单位):
太空探索技术公司
制造商所在国:
美国
使用方式:
暂无
卫星简介
星链(Starlink)计划是由太空探索技术公司(SpaceX)提出的一个巨型低轨卫星互联网星座项目,计划在2019年至2024年间在太空搭建由约1.2万颗卫星组成的“星链”网络,其中1584颗将部署在地球上空550千米处的近地轨道,并从2020年开始工作。该卫星仍在工作。
2D轨道图
3D轨道图
轨道高度分析图
轨道倾角分析图
轨道综合分析图
查看轨道综合分析图
交会数据列表
事件ID 空间交会对象 最接近时刻(TCA) 交会距离 交会风险概率(CRP) 交会风险指数(CRI) 操作
CDM_260907-003705-650806-717021
2026-09-07T
00:37:15+0000
0.542 km
远距离
1.156357E-4 高风险 0.76
CDM_260906-221305-650806-250221
2026-09-06T
22:13:19+0000
0.985 km
远距离
1.595866E-5 中风险 0.59
CDM_260903-103505-321605-650821
2026-09-03T
10:35:47+0000
1.720 km
极远距离
2.701677E-6 低风险 0.44
CDM_260906-234705-650806-250221
2026-09-06T
23:47:28+0000
1.694 km
极远距离
2.655005E-6 低风险 0.43
CDM_260907-021105-650806-717021
2026-09-07T
02:11:24+0000
1.928 km
极远距离
2.119229E-6 低风险 0.42
CDM_260907-042705-650806-221021
2026-09-07T
04:27:53+0000
1.809 km
极远距离
1.902965E-6 低风险 0.41
CDM_260906-230305-650806-717021
2026-09-06T
23:03:06+0000
2.255 km
极远距离
1.475195E-6 低风险 0.38
CDM_260907-042305-650806-734021
2026-09-07T
04:23:29+0000
1.618 km
极远距离
1.240451E-6 低风险 0.37